TimeMST,TemperatureF,Dew PointF,Humidity,Sea Level PressureIn,VisibilityMPH,Wind Direction,Wind SpeedMPH,Gust SpeedMPH,PrecipitationIn,Events,Conditions,WindDirDegrees,DateUTC
12:53 AM,19.9,8.1,60,30.05,10.0,SW,10.4,-,N/A,,Clear,220,2012-12-30 07:53:00
1:53 AM,19.9,8.1,60,30.07,10.0,WSW,16.1,-,N/A,,Partly Cloudy,240,2012-12-30 08:53:00
2:53 AM,19.9,9.0,62,30.10,10.0,SW,12.7,-,N/A,,Partly Cloudy,220,2012-12-30 09:53:00
3:53 AM,19.9,10.0,65,30.12,10.0,SW,12.7,-,N/A,,Mostly Cloudy,220,2012-12-30 10:53:00
4:53 AM,19.9,10.9,68,30.12,10.0,SW,13.8,-,N/A,,Overcast,230,2012-12-30 11:53:00
5:53 AM,19.9,10.0,65,30.13,10.0,WSW,17.3,-,N/A,,Mostly Cloudy,240,2012-12-30 12:53:00
6:53 AM,21.0,10.0,63,30.13,10.0,WSW,16.1,-,N/A,,Overcast,240,2012-12-30 13:53:00
7:53 AM,19.9,9.0,62,30.14,10.0,SW,13.8,-,N/A,,Mostly Cloudy,230,2012-12-30 14:53:00
8:53 AM,19.0,10.0,68,30.17,10.0,SW,12.7,-,N/A,,Mostly Cloudy,220,2012-12-30 15:53:00
9:53 AM,19.9,10.9,68,30.18,10.0,SSW,10.4,-,N/A,,Mostly Cloudy,210,2012-12-30 16:53:00
10:53 AM,21.0,12.0,68,30.18,10.0,SW,10.4,-,N/A,,Scattered Clouds,220,2012-12-30 17:53:00
11:53 AM,27.0,16.0,63,30.15,10.0,WNW,11.5,16.1,N/A,,Scattered Clouds,300,2012-12-30 18:53:00
12:53 PM,28.0,21.0,75,30.14,10.0,WNW,8.1,-,N/A,,Mostly Cloudy,300,2012-12-30 19:53:00
1:53 PM,28.0,18.0,66,30.13,10.0,Calm,Calm,-,N/A,,Scattered Clouds,0,2012-12-30 20:53:00
2:53 PM,30.0,19.0,64,30.13,10.0,Calm,Calm,-,N/A,,Partly Cloudy,0,2012-12-30 21:53:00
3:53 PM,27.0,16.0,63,30.14,10.0,WSW,6.9,-,N/A,,Partly Cloudy,240,2012-12-30 22:53:00
4:53 PM,25.0,14.0,63,30.15,10.0,WSW,8.1,-,N/A,,Partly Cloudy,240,2012-12-30 23:53:00
5:53 PM,24.1,12.9,62,30.15,10.0,SW,6.9,-,N/A,,Partly Cloudy,230,2012-12-31 00:53:00
6:53 PM,21.9,12.0,66,30.15,10.0,WSW,12.7,-,N/A,,Clear,240,2012-12-31 01:53:00
7:53 PM,21.0,9.0,60,30.15,10.0,WSW,15.0,-,N/A,,Clear,240,2012-12-31 02:53:00
8:53 PM,19.0,8.1,62,30.16,10.0,WSW,13.8,-,N/A,,Scattered Clouds,240,2012-12-31 03:53:00
9:53 PM,17.1,7.0,65,30.17,10.0,SW,8.1,-,N/A,,Partly Cloudy,220,2012-12-31 04:53:00
10:53 PM,15.1,7.0,70,30.19,10.0,SW,10.4,-,N/A,,Partly Cloudy,220,2012-12-31 05:53:00
11:53 PM,14.0,6.1,71,30.17,10.0,SW,17.3,-,N/A,,Clear,230,2012-12-31 06:53:00